User: anonymous   Login
Location: Unspecified
(0.0000°N, 0.0000°E)
Time: 23:30:30
(UTC+01:00)
Language:

ASC 2 Rocket - Orbit

View from above orbital plane
View from above orbital plane
View from above satellite
View from above satellite

Ground track
Ground track

The orbit data is extracted from the following two-line orbital elements,

1 21228U 91028B   15085.54653762  .00000336  00000-0  90257-4 0  9991
2 21228 023.9902 186.8769 1144683 056.1122 052.9506 12.53045061 95638
Epoch (UTC): 26 March 2015 13:07:00
Eccentricity: 0.1144683
inclination: 23.9902°
perigee height: 555 km
apogee height: 2348 km
right ascension of ascending node: 186.8769°
argument of perigee: 56.1122°
revolutions per day: 12.53045061
mean anomaly at epoch: 52.9506°
orbit number at epoch: 9563

The dashed part of the orbit path shows where the satellite is in the earth's shadow,  

DLR